Location: Pilipovskiye Korichintsy
(49.1833°N, 27.4667°E)
Time: 00:33:44
(UTC+00:00)

Lacrosse 5 - Pass Details

Date: 03 November 2020
Orbit: 714 x 725 km, 57.0° (Epoch: 30 November)

Event Time Altitude Azimuth Distance (km) Brightness Sun altitude
Rises 15:32:16 0° 298° (WNW) 3,121 6.0 -8.1°
Reaches altitude 10° 15:34:47 10° 306° (NW) 2,199 5.0 -8.5°
Maximum altitude 15:39:34 41° 17° (NNE) 1,026 2.5 -9.3°
Enters shadow 15:43:50 13° 85° (E) 2,010 3.5 -10.0°
